Retour au catalogue

COSMOS 1275 DEB

ActifPO
NORAD 12669·DEBRIS·🇷🇺 Russia

Lancé Jun 4, 1981 depuis Plesetsk Cosmodrome

Loading…

Prochains Passages (prochaines 24 heures)

TLE

FraisSource: Space-Track

Époque: Sep 14, 2026, 07:46 UTC

1 12669U 81053Z   26257.32412419  .00001174  00000-0  70680-3 0  9996
2 12669  82.9966 102.9746 0070192 253.5348 230.0512 14.04802823277229

Suivez COSMOS 1275 DEB en temps réel avec AllMySat

Download on the App Store